Location: ????
(32.1228°N, 34.8377°E)
Time: 00:01:48
(UTC+00:00)

Cosmos 1937 Rocket - Pass Details

Date: 21 September 2020
Orbit: 747 x 779 km, 74.0° (Epoch: 21 October)

Event Time Altitude Azimuth Distance (km) Brightness Sun altitude
Rises 02:24:57 0° 344° (NNW) 3,197 6.7 -14.2°
Reaches altitude 10° 02:27:19 10° 345° (NNW) 2,268 5.9 -13.7°
Maximum altitude 02:32:28 85° 73° (ENE) 754 3.5 -12.6°
Drops below altitude 10° 02:37:35 10° 163° (SSE) 2,257 6.0 -11.5°
Sets 02:39:56 0° 164° (SSE) 3,180 6.8 -11.1°
